Погода в Номже

Россия / Костромская область     58°18′18″N   43°34′50″E
темп.,
°C
ветер,
м/с
пор.,
м/с
влажн.,
%
обл.,
%
осадки,
мм/ч
давл.,
гПа
погр.,
м
6 марта, сб
сб600:00−16зсз239661 0.1 101051
03:00−19зсз239648 0.1 101224
06:00−20зсз23980 0.0 101320
09:00−16зсз24940 0.0 1013167
12:00−11з249064 0.1 1013672
15:00−10зсз358682 0.1 1012875
18:00−14з2293100 0.1 101220
21:00−17юз239573 0.1 101220
7 марта, вс
вс700:00−17ююз239825 0.0 101041
03:00−18ю389955 0.1 1008141
06:00−16ю499789 0.0 1005257
09:00−11ю5129395 0.0 1002467
12:00−8ю61194100 0.9 999856
15:00−7ююв51094100 2.0 996880
18:00−6ююв4995100 1.2 992763
21:00−7юв41095100 2.3 990640
8 марта, пн
пн800:00−7вюв4895100 0.9 988531
03:00−7всв3796100 1.9 988417
06:00−8св3796100 0.7 989372
09:00−8св4794100 1.2 990463
12:00−8ссв4793100 0.4 992539
15:00−8с4792100 0.7 995636
18:00−10с3894100 0.2 997502
21:00−12с399499 0.4 1001490
9 марта, вт
вт900:00−14с499382 0.1 1003415
03:00−16ссз399488 0.1 1006346
06:00−16ссз389598 0.1 1008384
09:00−18ссз479496 0.2 1010367
12:00−16ссз359294 0.0 1011422
15:00−14ссз469097 0.1 1012613
18:00−18сз3595100 0.0 1013100
21:00−22ссз239895 0.1 101675
10 марта, ср
ср1000:00−26ссз239820 0.0 101729
03:00−28ссз239912 0.0 101728
06:00−30с239836 0.0 101826
09:00−26с249720 0.0 1019213
12:00−19с238874 0.0 1018510
15:00−17ссз238487 0.1 1017699
18:00−21ссз1294100 0.0 101820
21:00−26ссв119979 0.0 101820